Tracking 18844 objects as of 21-Nov-2017
HD Live streaming from Space Station
objects crossing your sky now

FENGYUN 1C DEB

Track FENGYUN 1C DEB now!
10-day predictions


NORAD ID: 31060
Int'l Code: 1999-025BFE
Perigee: 567.4 km
Apogee: 671.3 km
Inclination: 99.2 °
Period: 96.9 minutes
Semi major axis: 6990 km
RCS: 0.0121 m2 (small)
Launch date: May 10, 1999
Source: People's Republic of China (PRC)
Launch site: Taiyaun Space Center, China (TSC)

Note: This is SATELLITE DEBRIS
aabbcc
Your satellite tracking list
Your tracking list is empty




NASA's NSSDC Master Catalog

Two Line Element Set (TLE):
1 31060U 99025BFE 17322.45623451  .00004409  00000-0  49487-3 0  9992
2 31060  99.1651  36.4448 0074258 340.1013  19.7305 14.85440215570685
Source of the keplerian elements: AFSPC